{"data":{"norad_id":47226,"epoch":"2026-05-24T22:06:24.309216Z","epoch_age_seconds":78707,"freshness":"FRESH","line1":"1 47226U 20090A   26144.92111469  .00000623  00000+0  79410-4 0  9997","line2":"2 47226  97.8576 219.9933 0001877  89.5035 270.6394 14.84946896296786","mean_motion":14.84946896,"eccentricity":0.0001877,"inclination_deg":97.8576,"raan_deg":219.9933,"arg_perigee_deg":89.5035,"mean_anomaly_deg":270.6394,"bstar":7.941e-5,"rev_number":29678,"period_min":96.973164756189,"perigee_km":612.44017575128,"apogee_km":615.06493108963,"semimajor_km":6991.8895534205,"source":"CELESTRAK","updated_at":"2026-05-25T13:37:56.398168Z"}}